This is the latest recevied weather packets stored in our database for station/object OK1KZE-6. If no packets are shown the sender has not sent any weather packets the latest 10 day(s).
| Time | Temp. | Humidity | Pressure | Rain* | Wind** | Luminosity | Snow |
|---|---|---|---|---|---|---|---|
| 1777221608 | 11.11° C | 35% | 1024.3 hPa | - | - | - | - |
| 1777221308 | 11.11° C | 35% | 1024.4 hPa | - | - | - | - |
| 1777221008 | 11.11° C | 33% | 1024.3 hPa | - | - | - | - |
| 1777220707 | 11.11° C | 32% | 1024.7 hPa | - | - | - | - |
| 1777220408 | 11.11° C | 32% | 1024.7 hPa | - | - | - | - |
| 1777220109 | 11.11° C | 32% | 1024.3 hPa | - | - | - | - |
| 1777219807 | 11.67° C | 33% | 1024.6 hPa | - | - | - | - |
| 1777219508 | 11.67° C | 33% | 1024.5 hPa | - | - | - | - |
| 1777219208 | 11.11° C | 33% | 1024.4 hPa | - | - | - | - |
| 1777218907 | 11.67° C | 35% | 1024.5 hPa | - | - | - | - |
| 1777218608 | 11.67° C | 33% | 1024.7 hPa | - | - | - | - |
| 1777218308 | 11.67° C | 33% | 1024.7 hPa | - | - | - | - |
| 1777218008 | 11.67° C | 32% | 1024.7 hPa | - | - | - | - |
| 1777217707 | 11.67° C | 32% | 1024.9 hPa | - | - | - | - |
| 1777217406 | 11.67° C | 33% | 1024.6 hPa | - | - | - | - |
| 1777217107 | 11.67° C | 31% | 1024.7 hPa | - | - | - | - |
| 1777216807 | 11.67° C | 34% | 1024.8 hPa | - | - | - | - |
| 1777216508 | 11.11° C | 33% | 1024.8 hPa | - | - | - | - |
| 1777216208 | 11.67° C | 33% | 1024.8 hPa | - | - | - | - |
| 1777215908 | 11.67° C | 33% | 1024.9 hPa | - | - | - | - |
| 1777215608 | 11.67° C | 34% | 1024.8 hPa | - | - | - | - |
| 1777215308 | 11.67° C | 33% | 1024.8 hPa | - | - | - | - |
| 1777215008 | 11.67° C | 34% | 1024.7 hPa | - | - | - | - |
| 1777214707 | 12.22° C | 33% | 1025 hPa | - | - | - | - |
| 1777214407 | 11.67° C | 34% | 1024.9 hPa | - | - | - | - |
* Rain since midnight (hover to see other rain measurements)
** Current wind speed in m/s (hover to see current wind gust speed)